DW7214 Weather Reports


Display with metric or nautical units.
time (UTC)temp
F
wind
direction
speed
MPH
gust
MPH
rain 1hr
in
rain 24hr
in
rain mn
in
humidity
%
barometer
mb
20220518192727 51 208 8.0 0.0 0.00 0.00 0.10 100 1019.3
20220518192219 51 229 8.0 0.0 0.00 0.00 0.10 100 1019.3
20220518191733 51 202 7.0 0.0 0.00 0.00 0.09 100 1019.3
20220518191223 51 188 6.0 0.0 0.00 0.00 0.09 100 1019.2
20220518190741 51 209 7.0 0.0 0.00 0.00 0.09 100 1019.2
20220518190236 51 195 7.0 0.0 0.00 0.00 0.09 100 1019.3
20220518185726 51 198 8.0 0.0 0.00 0.00 0.09 100 1018.9
20220518185222 52 194 8.0 0.0 0.00 0.00 0.09 100 1018.9
20220518184734 52 225 8.0 0.0 0.00 0.00 0.09 100 1018.9
20220518184226 52 192 8.0 0.0 0.00 0.00 0.09 100 1018.7
20220518183733 52 186 8.0 0.0 0.00 0.00 0.09 100 1018.7
20220518183229 53 213 8.0 0.0 0.00 0.00 0.09 100 1018.7
20220518182720 53 205 9.0 0.0 0.00 0.00 0.09 100 1018.4
20220518182231 53 196 9.0 0.0 0.00 0.00 0.09 100 1018.4
20220518181724 53 188 9.0 0.0 0.00 0.00 0.09 100 1018.3
20220518181220 53 175 8.0 0.0 0.00 0.00 0.09 100 1018.3
20220518180737 52 168 9.0 0.0 0.00 0.00 0.09 100 1018.2
20220518180221 52 194 9.0 0.0 0.00 0.00 0.09 100 1018.3
20220518175732 52 147 8.0 0.0 0.00 0.00 0.09 100 1018.3
20220518175223 52 188 7.0 0.0 0.00 0.00 0.09 100 1018.3
20220518174732 52 180 7.0 0.0 0.00 0.00 0.09 100 1018.3
20220518174223 52 217 8.0 0.0 0.00 0.00 0.09 100 1018.2
20220518173731 52 196 8.0 0.0 0.00 0.00 0.09 100 1018.2
20220518173223 52 208 8.0 0.0 0.00 0.00 0.09 100 1018.1
20220518172735 52 192 7.0 0.0 0.00 0.00 0.09 100 1018.1
20220518172231 52 202 7.0 0.0 0.00 0.00 0.09 100 1018.1
20220518171721 52 181 7.0 0.0 0.00 0.00 0.09 100 1018.0
20220518171228 52 202 7.0 0.0 0.00 0.00 0.09 100 1018.0
20220518170747 52 171 7.0 0.0 0.00 0.00 0.09 100 1018.0
20220518170230 51 222 6.0 0.0 0.00 0.00 0.09 100 1018.0
20220518165721 51 185 6.0 0.0 0.00 0.00 0.09 100 1017.8
20220518165231 51 164 6.0 0.0 0.00 0.00 0.09 100 1017.8
20220518164721 50 248 6.0 0.0 0.00 0.00 0.09 100 1017.8
20220518164233 50 154 7.0 0.0 0.00 0.00 0.09 100 1017.8
20220518163725 50 178 7.0 0.0 0.00 0.00 0.09 100 1017.8
20220518163219 49 197 5.0 0.0 0.00 0.00 0.09 100 1017.8
20220518162730 49 165 6.0 0.0 0.00 0.00 0.09 100 1017.8
20220518162220 49 182 7.0 0.0 0.00 0.00 0.09 100 1017.8
20220518161728 49 177 7.0 0.0 0.00 0.00 0.09 100 1017.7
20220518161219 49 155 7.0 0.0 0.00 0.00 0.09 100 1017.7
20220518160737 49 181 8.0 0.0 0.00 0.00 0.09 100 1017.7
20220518160219 49 209 9.0 0.0 0.00 0.00 0.09 100 1017.7
20220518155730 49 188 8.0 0.0 0.00 0.00 0.09 100 1017.7
20220518155221 49 188 7.0 0.0 0.00 0.00 0.09 100 1017.7
20220518154736 49 207 8.0 0.0 0.00 0.00 0.09 100 1017.7
20220518154226 49 202 9.0 0.0 0.00 0.00 0.09 100 1017.6
20220518153736 49 207 8.0 0.0 0.00 0.00 0.09 100 1017.6
20220518153234 49 194 8.0 0.0 0.00 0.00 0.09 100 1017.6
20220518152726 49 200 8.0 0.0 0.00 0.00 0.09 100 1017.5
20220518152217 49 199 7.0 0.0 0.00 0.00 0.09 100 1017.5
20220518151729 48 190 7.0 0.0 0.00 0.00 0.09 100 1017.5
20220518151221 48 193 7.0 0.0 0.00 0.00 0.09 100 1017.4
20220518150741 48 196 7.0 0.0 0.00 0.00 0.09 100 1017.4
20220518150228 48 207 8.0 0.0 0.00 0.00 0.09 100 1017.3
20220518145718 48 185 9.0 0.0 0.00 0.00 0.09 100 1017.3
20220518145230 48 183 9.0 0.0 0.00 0.00 0.09 100 1017.3
20220518144721 48 183 9.0 0.0 0.00 0.00 0.09 100 1017.5
20220518144231 47 209 8.0 0.0 0.00 0.00 0.09 100 1017.4
20220518143737 47 207 8.0 0.0 0.00 0.00 0.09 100 1017.5
20220518143235 47 155 6.0 0.0 0.00 0.00 0.09 100 1017.4
20220518142727 48 186 6.0 0.0 0.00 0.00 0.09 100 1017.4
20220518142237 47 261 6.0 0.0 0.00 0.00 0.09 100 1017.3
20220518141732 47 204 5.0 0.0 0.00 0.00 0.09 100 1017.3
20220518141222 47 231 3.0 0.0 0.00 0.00 0.09 100 1017.2
20220518140740 47 171 3.0 0.0 0.00 0.00 0.09 100 1017.2
20220518140221 47 192 4.0 0.0 0.00 0.00 0.09 100 1017.0
20220518135733 47 184 4.0 0.0 0.00 0.00 0.09 100 1017.0
20220518135225 47 171 6.0 0.0 0.00 0.00 0.09 100 1017.0
20220518134736 47 206 8.0 0.0 0.00 0.00 0.09 100 1017.0
20220518134228 47 175 9.0 0.0 0.00 0.00 0.09 100 1017.2
20220518133734 47 192 8.0 0.0 0.00 0.00 0.09 100 1017.2
20220518133223 47 233 9.0 0.0 0.00 0.00 0.09 100 1017.2
20220518132718 48 165 10.0 0.0 0.00 0.00 0.09 1 1017.2
20220518132229 48 225 9.0 0.0 0.00 0.00 0.09 5 1017.2
20220518131720 48 165 8.0 0.0 0.00 0.00 0.09 1 1017.1
20220518131231 48 221 7.0 0.0 0.00 0.00 0.09 5 1017.1
20220518130749 48 174 7.0 0.0 0.00 0.00 0.08 6 1017.1
20220518130230 48 215 7.0 0.0 0.00 0.00 0.08 7 1017.2
20220518125720 48 223 7.0 0.0 0.00 0.00 0.07 7 1017.6
20220518125231 48 198 6.0 0.0 0.00 0.00 0.07 8 1017.6
20220518124721 48 191 6.0 0.0 0.00 0.00 0.07 13 1017.2
20220518124236 48 171 7.0 0.0 0.00 0.00 0.06 18 1017.2
20220518123740 48 221 8.0 0.0 0.00 0.00 0.06 26 1017.2
20220518123230 48 202 7.0 0.0 0.00 0.00 0.05 28 1017.2
20220518122721 48 202 8.0 0.0 0.00 0.00 0.04 28 1017.7
20220518122233 48 194 8.0 0.0 0.00 0.00 0.03 31 1017.7
20220518121724 48 236 6.0 0.0 0.00 0.00 0.03 32 1017.6
20220518121231 48 223 5.0 0.0 0.00 0.00 0.03 34 1017.6
20220518120749 48 253 5.0 0.0 0.00 0.00 0.03 36 1017.6
20220518120233 48 201 7.0 0.0 0.00 0.00 0.03 38 1017.7
20220518115724 48 212 7.0 0.0 0.00 0.00 0.03 43 1017.5
20220518115219 48 209 6.0 0.0 0.00 0.00 0.02 46 1017.5
20220518114730 48 216 6.0 0.0 0.00 0.00 0.02 48 1017.5
20220518114221 48 173 7.0 0.0 0.00 0.00 0.01 45 1017.6
20220518113730 48 215 7.0 0.0 0.00 0.00 0.01 42 1017.6
20220518113224 48 205 6.0 0.0 0.00 0.00 0.01 41 1017.7
20220518112735 48 226 6.0 0.0 0.00 0.00 0.01 43 1017.7
20220518112226 48 226 6.0 0.0 0.00 0.00 0.01 43 1017.7
20220518111737 48 188 5.0 0.0 0.00 0.00 0.01 44 1017.7
20220518111228 48 213 5.0 0.0 0.00 0.00 0.01 43 1017.6
20220518110750 48 210 6.0 0.0 0.00 0.00 0.01 45 1017.6
20220518110222 48 215 5.0 0.0 0.00 0.00 0.01 46 1017.7
20220518105733 48 217 4.0 0.0 0.00 0.00 0.01 48 1017.7
20220518105224 48 242 6.0 0.0 0.00 0.00 0.01 51 1017.7
20220518104734 48 209 6.0 0.0 0.00 0.00 0.00 53 1017.7
20220518104225 48 207 5.0 0.0 0.00 0.00 0.00 54 1017.2
20220518103734 49 208 5.0 0.0 0.00 0.00 0.00 54 1017.2
20220518103229 49 199 4.0 0.0 0.00 0.00 0.00 54 1017.2
20220518102722 49 223 4.0 0.0 0.00 0.00 0.00 53 1017.1
20220518102232 49 195 5.0 0.0 0.00 0.00 0.00 53 1017.1
20220518101727 49 200 5.0 0.0 0.00 0.00 0.00 52 1017.2
20220518101218 49 214 5.0 0.0 0.00 0.00 0.00 52 1017.2
20220518100736 48 213 3.0 0.0 0.00 0.00 0.00 50 1017.2
20220518100218 49 222 1.0 0.0 0.00 0.00 0.00 45 1017.4
20220518095729 49 206 0.0 0.0 0.00 0.00 0.00 40 1017.4
20220518095220 49 206 0.0 0.0 0.00 0.00 0.00 41 1017.4
20220518094731 49 206 0.0 0.0 0.00 0.00 0.00 41 1017.4
20220518094222 49 206 0.0 0.0 0.00 0.00 0.00 43 1017.1
20220518093730 49 206 0.0 0.0 0.00 0.00 0.00 46 1017.1
20220518093229 49 206 0.0 0.0 0.00 0.00 0.00 47 1017.1
20220518092720 49 206 0.0 0.0 0.00 0.00 0.00 49 1017.7
20220518092231 49 206 0.0 0.0 0.00 0.00 0.00 50 1017.7
20220518091722 49 206 1.0 0.0 0.00 0.00 0.00 51 1017.7
20220518091233 49 206 3.0 0.0 0.00 0.00 0.00 52 1017.7
20220518090732 49 207 4.0 0.0 0.00 0.00 0.00 52 1017.7
20220518090234 49 209 5.0 0.0 0.00 0.00 0.00 52 1017.7
20220518085724 48 205 5.0 0.0 0.00 0.00 0.00 52 1018.2
20220518085235 49 223 5.0 0.0 0.00 0.00 0.00 52 1018.2
20220518084727 48 200 5.0 0.0 0.00 0.00 0.00 53 1018.2
20220518084238 48 205 5.0 0.0 0.00 0.00 0.00 52 1018.2
20220518083723 48 215 6.0 0.0 0.00 0.00 0.00 53 1018.2
20220518083238 48 215 6.0 0.0 0.00 0.00 0.00 54 1018.2
20220518082728 48 209 6.0 0.0 0.00 0.00 0.00 54 1018.4
20220518082219 48 234 5.0 0.0 0.00 0.00 0.00 54 1018.4
20220518081730 48 216 4.0 0.0 0.00 0.00 0.00 54 1018.4
20220518081221 48 225 4.0 0.0 0.00 0.00 0.00 54 1018.2
20220518080742 48 236 4.0 0.0 0.00 0.00 0.00 54 1018.2
20220518080222 48 241 5.0 0.0 0.00 0.00 0.00 54 1018.4
20220518075737 48 246 4.0 0.0 0.00 0.00 0.00 54 1018.4
20220518075228 48 214 4.0 0.0 0.00 0.00 0.00 54 1018.4
20220518074719 48 229 4.0 0.0 0.00 0.00 0.00 54 1018.6
20220518074230 48 229 5.0 0.0 0.00 0.00 0.00 54 1018.6
20220518073737 48 219 5.0 0.0 0.00 0.00 0.00 54 1018.6
20220518073233 48 217 5.0 0.0 0.00 0.00 0.00 54 1018.6
20220518072724 48 237 5.0 0.0 0.00 0.00 0.00 53 1018.7
20220518072235 48 238 4.0 0.0 0.00 0.00 0.00 53 1018.7
20220518071726 49 229 4.0 0.0 0.00 0.00 0.00 53 1018.8
20220518071221 49 221 3.0 0.0 0.00 0.00 0.00 53 1018.8
20220518070739 49 227 3.0 0.0 0.00 0.00 0.00 52 1018.8
20220518070221 49 224 4.0 0.0 0.00 0.00 0.00 52 1018.7
20220518065732 49 231 4.0 0.0 0.00 0.00 0.00 52 1018.7
20220518065223 49 227 3.0 0.0 0.00 0.00 0.00 52 1018.7
20220518064733 49 232 3.0 0.0 0.00 0.00 0.00 51 1018.7
20220518064224 49 234 4.0 0.0 0.00 0.00 0.00 52 1019.0
20220518063733 49 215 4.0 0.0 0.00 0.00 0.00 52 1019.0
20220518063227 49 217 4.0 0.0 0.00 0.00 0.00 52 1018.9
20220518062722 49 223 4.0 0.0 0.00 0.00 0.00 52 1018.9
20220518062233 49 221 4.0 0.0 0.00 0.00 0.00 52 1018.9
20220518061723 49 231 4.0 0.0 0.00 0.00 0.00 52 1019.1
20220518061234 50 233 4.0 0.0 0.00 0.00 0.00 52 1019.1
20220518060734 50 218 3.0 0.0 0.00 0.00 0.00 52 1019.1
20220518060236 50 223 3.0 0.0 0.00 0.00 0.00 52 1019.0
20220518055727 50 223 3.0 0.0 0.00 0.00 0.00 51 1018.9
20220518055218 50 218 3.0 0.0 0.00 0.00 0.00 51 1018.9
20220518054729 50 219 4.0 0.0 0.00 0.00 0.00 51 1018.9
20220518054224 50 225 5.0 0.0 0.00 0.00 0.00 51 1019.3
20220518053733 50 213 5.0 0.0 0.00 0.00 0.00 51 1019.3
20220518053221 50 216 6.0 0.0 0.00 0.00 0.00 51 1019.5
20220518052732 50 219 6.0 0.0 0.00 0.00 0.00 52 1019.5
20220518052223 50 221 5.0 0.0 0.00 0.00 0.00 52 1019.5
20220518051733 50 222 5.0 0.0 0.00 0.00 0.00 52 1019.5
20220518051224 50 233 5.0 0.0 0.00 0.00 0.00 52 1019.3
20220518050743 50 238 5.0 0.0 0.00 0.00 0.00 53 1019.3
20220518050225 51 234 5.0 0.0 0.00 0.00 0.00 53 1019.0
20220518045736 51 212 5.0 0.0 0.00 0.00 0.00 53 1019.0
20220518045231 51 225 4.0 0.0 0.00 0.00 0.00 53 1019.0
20220518044722 51 223 4.0 0.0 0.00 0.00 0.00 53 1018.8
20220518044233 51 215 5.0 0.0 0.00 0.00 0.00 53 1018.8
20220518043721 51 213 6.0 0.0 0.00 0.00 0.00 53 1018.8
20220518043236 51 211 6.0 0.0 0.00 0.00 0.00 53 1018.8
20220518042727 51 223 7.0 0.0 0.00 0.00 0.00 53 1019.2
20220518042218 51 211 8.0 0.0 0.00 0.00 0.00 52 1019.2
20220518041729 51 230 8.0 0.0 0.00 0.00 0.00 52 1019.2
20220518041220 51 211 8.0 0.0 0.00 0.00 0.00 52 1019.3
20220518040744 51 222 8.0 0.0 0.00 0.00 0.00 52 1019.3
20220518040227 52 222 7.0 0.0 0.00 0.00 0.00 52 1019.2
20220518035718 52 213 8.0 0.0 0.00 0.00 0.00 52 1019.2
20220518035229 52 218 8.0 0.0 0.00 0.00 0.00 51 1019.2
20220518034720 52 216 7.0 0.0 0.00 0.00 0.00 52 1019.2
20220518034230 52 214 6.0 0.0 0.00 0.00 0.00 52 1019.2
20220518033739 53 218 5.0 0.0 0.00 0.00 0.00 52 1019.2
20220518033235 53 219 5.0 0.0 0.00 0.00 0.00 52 1019.2
20220518032726 53 212 5.0 0.0 0.00 0.00 0.00 52 1019.2
20220518032221 53 222 5.0 0.0 0.00 0.00 0.00 52 1019.2
20220518031732 53 223 6.0 0.0 0.00 0.00 0.00 52 1019.2
20220518031223 54 221 6.0 0.0 0.00 0.00 0.00 52 1019.4
20220518030741 54 217 5.0 0.0 0.00 0.00 0.00 52 1019.4
20220518030222 54 210 4.0 0.0 0.00 0.00 0.00 53 1019.2
20220518025733 54 207 4.0 0.0 0.00 0.00 0.00 53 1019.2
20220518025222 55 207 5.0 0.0 0.00 0.00 0.00 53 1019.2
20220518024731 55 211 5.0 0.0 0.00 0.00 0.00 53 1019.2
20220518024222 55 211 6.0 0.0 0.00 0.00 0.00 53 1019.3
20220518023732 55 216 6.0 0.0 0.00 0.00 0.00 53 1019.3
20220518023227 55 211 6.0 0.0 0.00 0.00 0.00 53 1019.2
20220518022736 56 213 7.0 0.0 0.00 0.00 0.00 53 1019.3
20220518022227 56 221 6.0 0.0 0.00 0.00 0.00 53 1019.3
20220518021737 56 214 6.0 0.0 0.00 0.00 0.00 53 1019.3
20220518021227 56 214 6.0 0.0 0.00 0.00 0.00 53 1019.3
20220518020746 56 214 6.0 0.0 0.00 0.00 0.00 53 1019.3
20220518020227 57 213 5.0 0.0 0.00 0.00 0.00 53 1019.6
20220518015718 57 217 4.0 0.0 0.00 0.00 0.00 53 1019.6
20220518015229 57 205 4.0 0.0 0.00 0.00 0.00 54 1019.6
20220518014724 57 215 4.0 0.0 0.00 0.00 0.00 54 1019.7
20220518014235 58 213 4.0 0.0 0.00 0.00 0.00 54 1019.7
20220518013723 58 225 5.0 0.0 0.00 0.00 0.00 54 1019.7
20220518013237 58 223 5.0 0.0 0.00 0.00 0.00 54 1019.7
20220518012728 59 213 4.0 0.0 0.00 0.00 0.00 55 1019.7
20220518012219 59 205 4.0 0.0 0.00 0.00 0.00 55 1019.7
20220518011730 59 219 5.0 0.0 0.00 0.00 0.00 55 1019.7
20220518011221 59 213 5.0 0.0 0.00 0.00 0.00 55 1019.7
20220518010740 60 221 3.0 0.0 0.00 0.00 0.00 56 1019.8
20220518010223 61 207 2.0 0.0 0.00 0.00 0.00 56 1019.8
20220518005718 61 211 2.0 0.0 0.00 0.00 0.00 56 1019.8
20220518005229 62 205 1.0 0.0 0.00 0.00 0.00 55 1019.8
20220518004720 62 205 2.0 0.0 0.00 0.00 0.00 54 1019.9
20220518004231 62 200 1.0 0.0 0.00 0.00 0.00 53 1019.9
20220518003739 62 213 0.0 0.0 0.00 0.00 0.00 53 1019.9
20220518003234 62 213 3.0 0.0 0.00 0.00 0.00 54 1019.9
20220518002725 62 211 3.0 0.0 0.00 0.00 0.00 54 1020.2
20220518002236 62 217 1.0 0.0 0.00 0.00 0.00 53 1020.2
20220518001727 62 207 2.0 0.0 0.00 0.00 0.00 53 1020.3
20220518001222 62 207 3.0 0.0 0.00 0.00 0.00 53 1020.3
20220518000744 62 212 1.0 0.0 0.00 0.00 0.00 53 1020.3
20220518000227 62 220 1.0 0.0 0.00 0.00 0.00 53 1020.3
20220517235719 62 220 3.0 0.0 0.00 0.00 0.00 51 1020.3
20220517235231 62 212 2.0 0.0 0.00 0.00 0.00 53 1020.3
20220517234724 62 211 2.0 0.0 0.00 0.00 0.00 53 1020.6
20220517234233 61 199 3.0 0.0 0.00 0.00 0.00 53 1020.5
20220517233721 62 218 5.0 0.0 0.00 0.00 0.00 53 1020.6
20220517233237 62 213 6.0 0.0 0.00 0.00 0.00 53 1020.6
20220517232726 62 202 3.0 0.0 0.00 0.00 0.00 51 1020.6
20220517232218 62 215 2.0 0.0 0.00 0.00 0.00 51 1020.6
20220517231730 62 201 1.0 0.0 0.00 0.00 0.00 50 1020.6
20220517231222 62 220 2.0 0.0 0.00 0.00 0.00 55 1020.8
20220517230741 62 219 2.0 0.0 0.00 0.00 0.00 51 1020.8
20220517230225 63 206 0.0 0.0 0.00 0.00 0.00 53 1020.9
20220517225717 62 245 2.0 0.0 0.00 0.00 0.00 51 1020.8
20220517225229 62 209 2.0 0.0 0.00 0.00 0.00 52 1020.8
20220517224721 62 217 0.0 0.0 0.00 0.00 0.00 49 1020.9
20220517224217 62 215 0.0 0.0 0.00 0.00 0.00 52 1020.9
20220517223726 61 215 1.0 0.0 0.00 0.00 0.00 51 1020.9
20220517223222 61 215 3.0 0.0 0.00 0.00 0.00 51 1021.2
20220517222734 61 204 4.0 0.0 0.00 0.00 0.00 50 1021.2
20220517222225 62 207 2.0 0.0 0.00 0.00 0.00 50 1021.2
20220517221717 62 250 1.0 0.0 0.00 0.00 0.00 52 1021.4
20220517221229 61 250 2.0 0.0 0.00 0.00 0.00 50 1021.4
20220517220750 60 221 3.0 0.0 0.00 0.00 0.00 49 1021.3
20220517220232 61 200 1.0 0.0 0.00 0.00 0.00 48 1021.4
20220517215727 61 207 1.0 0.0 0.00 0.00 0.00 51 1021.4
20220517215219 61 193 1.0 0.0 0.00 0.00 0.00 50 1021.4
20220517214732 61 192 0.0 0.0 0.00 0.00 0.00 52 1021.4
20220517214221 61 192 1.0 0.0 0.00 0.00 0.00 54 1021.6
20220517213727 60 188 2.0 0.0 0.00 0.00 0.00 51 1021.6
20220517213218 61 208 1.0 0.0 0.00 0.00 0.00 52 1021.8
20220517212727 61 223 0.0 0.0 0.00 0.00 0.00 51 1021.8
20220517212236 61 223 1.0 0.0 0.00 0.00 0.00 52 1021.8
20220517211721 60 214 1.0 0.0 0.00 0.00 0.00 54 1021.8
20220517211228 60 221 1.0 0.0 0.00 0.00 0.00 52 1021.8
20220517210749 60 215 1.0 0.0 0.00 0.00 0.00 53 1021.8
20220517210228 59 189 2.0 0.0 0.00 0.00 0.00 53 1021.8
20220517205737 59 203 2.0 0.0 0.00 0.00 0.00 51 1021.9
20220517205228 59 187 2.0 0.0 0.00 0.00 0.00 51 1021.9
20220517204719 59 305 2.0 0.0 0.00 0.00 0.00 52 1021.9
20220517204230 59 232 2.0 0.0 0.00 0.00 0.00 51 1021.9
20220517203720 58 267 1.0 0.0 0.00 0.00 0.00 54 1021.9
20220517203233 58 207 1.0 0.0 0.00 0.00 0.00 52 1021.9
20220517202724 58 206 2.0 0.0 0.00 0.00 0.00 52 1022.1
20220517202219 58 195 2.0 0.0 0.00 0.00 0.00 53 1022.1
20220517201730 59 303 1.0 0.0 0.00 0.00 0.00 52 1022.1
20220517201221 58 162 1.0 0.0 0.00 0.00 0.00 51 1022.4
20220517200741 58 215 1.0 0.0 0.00 0.00 0.00 53 1022.4
20220517200224 58 210 2.0 0.0 0.00 0.00 0.00 52 1022.5
20220517195735 58 223 1.0 0.0 0.00 0.00 0.00 51 1022.5
20220517195226 58 219 0.0 0.0 0.00 0.00 0.00 52 1022.5
20220517194737 57 163 1.0 0.0 0.00 0.00 0.00 53 1022.5
20220517194228 57 150 1.0 0.0 0.00 0.00 0.00 52 1022.7
20220517193720 57 244 2.0 0.0 0.00 0.00 0.00 53 1022.7
20220517193234 57 129 3.0 0.0 0.00 0.00 0.00 52 1022.7